GFSNW_sfc_thetae_159.txt.gz
Theta_e
309 308 308 307 307 305 302 293 289 302 302 290 287 283 290 296 297 301 297 293 288 288 290 290 290 289 292 296 294 289 291 286 283 288 295 297 294 293 290 283 282 284 282 283
309 308 307 307 306 305 300 291 292 300 299 283 284 289 292 294 294 296 295 294 293 294 289 288 291 293 297 295 294 292 293 285 282 285 290 293 288 293 293 289 287 285 282 285
309 308 307 307 306 305 296 291 286 291 291 291 285 286 288 288 296 296 297 297 298 295 288 292 291 293 298 298 299 302 297 288 286 278 287 291 287 292 294 289 283 286 289 295
310 308 307 307 306 305 296 291 287 289 283 287 288 286 288 287 288 294 295 293 294 293 286 288 289 295 296 298 301 296 293 285 290 291 293 294 293 293 292 289 289 290 298 297
310 308 307 307 306 305 296 290 289 291 290 289 287 287 286 287 290 290 290 289 293 293 293 292 291 294 296 294 296 291 291 285 290 289 293 294 293 295 293 293 301 301 302 302
310 308 307 307 306 302 291 293 294 293 289 287 284 284 287 288 291 292 296 293 292 291 293 298 298 299 301 300 294 289 288 285 287 286 293 292 287 291 294 296 299 303 299 304
310 309 307 306 307 303 298 292 296 289 284 287 287 290 290 290 290 289 294 294 291 297 301 301 303 301 301 301 299 293 288 286 286 286 290 281 291 298 298 298 303 305 306 309
311 309 307 306 306 306 297 294 292 292 288 288 290 291 291 291 291 291 292 296 298 298 296 292 287 292 295 294 299 293 292 287 286 285 283 290 294 301 299 296 299 308 308 310
312 310 307 306 306 306 295 293 298 295 292 287 293 290 291 286 287 288 292 296 298 296 291 292 285 285 290 289 294 297 296 293 288 286 283 282 293 304 306 305 292 308 308 307
311 310 308 306 306 305 301 297 294 291 292 292 292 288 287 291 288 286 289 293 294 294 286 288 286 287 290 288 289 287 288 289 287 285 286 291 301 304 307 291 291 309 309 308
311 310 308 306 305 305 301 297 295 293 289 292 295 296 291 291 289 285 290 292 292 291 285 287 289 287 290 290 294 292 290 287 287 287 285 284 304 305 297 299 307 310 308 307
310 309 308 306 305 305 304 291 298 296 292 290 296 298 300 298 297 291 290 291 292 293 287 287 292 290 287 289 287 296 290 293 291 290 291 303 304 303 307 307 306 306 306 307
309 309 308 307 305 305 304 296 297 295 291 291 291 293 298 300 300 300 291 293 296 293 292 293 294 290 290 287 288 291 292 295 297 297 299 298 303 306 307 308 308 307 308 307
309 309 308 306 305 305 304 298 294 292 289 289 291 300 298 302 300 300 300 299 297 295 292 291 292 289 294 290 289 288 290 293 293 295 297 301 303 303 306 307 308 307 307 306
309 309 308 307 305 305 303 300 297 298 290 290 290 297 297 298 298 299 300 299 295 290 288 289 290 294 292 294 291 287 292 290 291 291 295 296 298 300 308 306 304 304 303 302
310 309 308 306 304 303 298 294 295 299 298 293 288 293 295 298 299 302 300 299 294 291 289 289 291 297 293 289 286 292 295 295 295 295 298 297 298 306 308 305 304 305 304 304
309 307 305 305 303 296 293 290 299 302 300 295 288 287 294 298 300 300 300 298 296 293 289 287 287 292 292 289 286 290 295 295 296 297 299 296 296 298 304 303 305 305 304 304
306 305 304 303 303 300 294 296 302 300 291 293 285 287 291 297 293 295 297 295 294 293 289 289 286 286 290 284 290 294 295 296 296 297 297 296 297 298 300 305 304 303 302 302
304 303 302 299 296 292 295 305 305 299 293 292 290 287 283 295 291 292 295 294 289 292 287 286 285 287 285 289 290 292 293 294 295 296 296 296 294 294 295 296 299 299 297 295
302 296 294 293 297 305 307 301 295 294 295 296 287 290 287 289 287 287 290 291 288 285 286 288 287 287 293 294 295 295 294 294 295 293 292 294 293 293 293 293 294 295 294 294
293 292 295 297 304 301 299 294 291 291 292 293 290 290 286 292 285 287 289 286 290 284 285 285 285 284 291 295 295 295 295 295 295 294 294 295 295 294 293 293 293 293 293 292
295 292 295 297 297 297 291 287 291 293 288 292 293 294 293 293 293 289 290 287 290 285 290 283 281 287 294 295 294 295 296 295 295 296 294 294 294 294 293 293 292 292 292 291
296 294 292 290 287 280 284 282 285 288 292 296 296 294 295 295 292 290 289 287 286 292 285 283 284 288 294 294 294 293 294 295 295 295 295 294 294 294 293 291 291 290 290 290
292 290 282 285 284 285 285 287 287 291 294 294 293 292 291 290 289 289 286 289 290 284 281 283 286 289 290 291 294 292 293 294 294 294 294 292 292 291 292 291 290 289 287 287
290 289 283 284 288 289 292 293 294 297 295 294 293 293 292 290 289 290 289 286 284 284 281 285 288 290 290 290 290 291 294 294 294 294 293 291 290 289 288 289 288 287 286 285
292 289 285 287 286 287 288 291 293 297 297 296 295 291 288 288 289 288 287 284 279 283 287 288 290 290 289 288 289 290 292 292 292 292 292 290 289 287 286 287 286 285 285 284
289 285 288 287 286 286 287 289 293 296 294 291 294 287 288 289 284 285 286 281 285 289 288 290 291 289 288 289 290 291 291 291 292 291 290 289 289 288 286 284 284 285 286 286

GFSNW_sfc_thetae_165.txt.gz
Theta_e
312 311 311 309 307 305 303 299 294 306 306 295 293 292 291 295 296 298 297 297 294 289 289 288 290 290 293 298 296 290 293 290 284 287 293 296 293 291 291 285 286 290 288 290
312 311 310 308 307 305 301 296 296 304 305 290 290 292 291 294 294 294 295 295 296 295 290 286 290 293 298 298 295 292 293 289 283 285 289 294 291 292 293 292 290 288 287 291
312 312 310 308 307 305 301 297 292 297 297 296 291 289 289 291 295 294 296 295 298 295 290 293 288 290 295 298 297 299 298 291 287 282 286 292 288 291 293 291 284 289 292 296
313 312 310 308 306 305 300 297 292 293 291 292 292 290 290 289 288 294 295 295 295 292 286 289 288 289 292 294 299 298 296 289 291 292 292 292 291 291 290 289 288 286 294 293
312 312 310 308 306 304 300 294 294 296 293 294 291 289 289 288 290 290 291 292 293 293 289 290 288 291 289 290 297 296 297 290 292 289 292 291 289 291 291 290 290 291 293 293
311 311 310 307 307 303 296 297 299 295 292 292 290 290 290 290 292 293 294 293 292 292 295 296 297 297 297 296 294 294 292 291 289 287 291 290 285 289 291 292 295 294 291 299
310 310 311 307 307 304 300 298 297 293 289 290 291 291 292 291 291 290 293 295 294 298 301 302 301 301 298 297 295 297 292 291 291 287 288 280 292 299 297 296 297 300 300 308
311 310 311 308 306 305 302 300 296 295 289 291 291 292 292 293 293 291 293 296 299 300 299 296 293 292 292 295 299 298 299 293 289 286 286 290 295 300 299 300 301 310 307 309
311 310 311 309 306 305 303 301 301 298 290 290 294 291 293 289 289 292 293 298 301 302 297 293 286 285 288 288 294 300 299 297 291 288 287 285 296 302 305 306 298 311 310 308
308 309 311 310 308 306 304 301 301 298 290 294 295 293 291 293 292 289 292 294 297 302 293 290 287 287 291 287 289 292 293 294 291 289 289 293 301 303 306 295 296 305 310 311
307 307 310 311 309 306 304 301 301 297 292 294 295 296 294 293 293 289 293 295 298 298 291 289 289 287 289 289 292 291 291 289 289 291 289 287 303 304 299 304 307 310 310 310
306 307 309 310 310 307 305 298 301 300 293 294 298 297 298 296 296 293 294 296 295 298 293 293 293 289 289 288 287 294 290 291 289 293 293 300 304 301 305 309 307 311 310 308
305 306 307 309 310 308 305 300 299 296 292 292 292 296 301 301 299 301 293 298 300 300 299 296 294 289 290 287 288 289 293 293 293 295 298 296 302 303 303 309 310 311 310 309
305 305 306 308 310 308 306 301 299 296 293 286 294 302 301 305 304 301 301 302 302 301 298 297 295 290 293 289 290 289 291 292 290 295 296 299 302 301 301 309 310 309 309 308
305 306 307 309 309 307 306 304 301 301 292 290 293 299 301 303 303 302 301 300 299 298 297 296 294 297 293 293 291 289 291 290 288 289 295 295 296 300 304 306 308 308 307 306
306 307 308 308 306 304 300 294 299 300 297 290 287 299 300 302 305 301 300 300 300 300 298 297 298 298 294 289 287 290 292 296 296 293 297 297 299 300 304 305 306 307 305 305
307 308 308 306 305 301 297 295 299 301 300 293 290 291 299 301 303 305 302 302 302 300 298 297 296 296 295 290 287 291 295 296 297 298 298 297 296 295 302 305 306 306 304 304
308 308 306 305 303 302 296 301 303 302 296 294 289 291 295 301 298 301 304 302 301 299 298 295 295 295 292 287 291 293 295 296 296 296 296 295 297 298 303 304 304 303 302 301
306 304 302 301 297 293 296 304 303 302 294 291 293 290 290 301 298 296 302 302 298 299 296 295 293 291 287 290 291 293 294 293 294 296 295 295 293 294 296 301 301 301 300 302
303 299 295 294 298 302 304 299 292 291 292 293 290 296 291 296 296 295 296 299 298 295 295 295 292 291 294 295 295 295 294 295 296 294 291 292 291 291 292 293 296 297 298 299
297 294 294 300 301 301 298 295 291 291 289 294 295 294 293 299 293 294 296 294 296 292 293 292 291 290 294 295 294 295 295 295 295 294 294 293 292 292 291 291 292 293 295 294
299 297 298 298 297 295 292 291 293 291 290 296 294 295 295 297 298 296 297 294 295 289 295 292 290 292 295 295 294 295 295 295 294 294 293 292 292 292 291 291 290 291 292 293
298 296 293 293 291 286 286 284 287 291 296 297 297 297 300 299 299 297 295 291 291 296 292 291 293 293 296 296 295 295 295 295 294 293 293 293 292 292 292 290 291 291 290 291
292 290 283 286 285 287 290 291 292 297 297 299 299 300 298 298 295 296 291 294 296 290 288 290 293 294 296 297 296 295 294 295 294 293 293 292 291 290 290 290 290 289 288 289
290 290 283 287 291 292 294 294 295 298 301 300 298 298 298 296 293 294 292 290 288 291 291 296 295 296 297 295 295 295 295 295 295 295 294 293 293 291 289 289 288 288 287 287
292 290 286 291 290 292 293 294 295 299 302 302 301 295 293 292 293 290 290 289 288 293 297 297 297 296 296 295 295 296 296 296 296 295 295 293 291 290 288 288 288 287 287 287
289 288 292 291 291 290 293 294 295 299 299 295 296 290 289 295 290 290 293 292 296 298 298 297 298 298 297 297 296 297 297 297 297 295 294 293 292 290 288 286 287 287 287 286

GFSNW_sfc_thetae_168.txt.gz
Theta_e
312 312 311 310 308 305 307 309 301 311 313 301 301 296 294 296 298 301 299 300 298 295 294 290 291 291 294 300 299 293 297 294 289 291 296 297 296 293 293 288 287 291 293 293
312 312 311 310 308 305 307 303 304 312 311 296 297 297 295 297 297 297 297 297 299 299 293 288 290 291 298 299 297 293 296 292 287 287 290 295 293 295 295 295 294 290 290 293
312 312 311 309 307 306 307 304 298 304 306 303 298 295 294 293 298 297 299 298 300 296 295 297 290 290 295 298 297 299 296 294 290 286 287 288 290 293 294 294 289 290 294 298
312 311 311 309 307 305 307 303 299 300 296 299 299 298 294 292 291 296 298 297 298 296 291 291 291 291 291 295 298 297 293 290 293 293 294 295 294 292 293 291 293 289 295 298
311 310 311 309 307 305 307 299 298 302 299 300 298 294 295 293 294 294 293 295 297 298 293 294 290 292 290 292 297 295 296 289 295 292 293 293 293 295 294 294 295 294 296 297
312 311 310 309 307 306 306 306 306 300 297 298 297 297 296 295 297 297 297 296 297 297 299 301 302 299 298 296 296 296 296 294 291 288 292 292 287 295 296 296 298 296 293 298
312 311 310 310 307 305 307 305 303 299 294 296 296 297 298 297 297 294 297 299 299 303 306 308 306 301 299 298 299 299 293 292 290 288 289 282 295 301 300 298 299 300 300 302
311 311 310 311 307 306 307 308 303 301 295 297 297 297 298 299 299 297 298 301 304 307 307 299 295 299 296 296 300 301 299 293 287 287 288 290 291 295 295 296 297 303 303 303
309 309 310 311 308 306 306 307 307 302 296 299 298 297 300 297 296 297 299 304 308 309 301 297 288 287 288 290 294 304 302 297 292 289 285 286 294 302 307 306 295 309 306 305
309 308 308 310 310 307 306 305 308 300 296 301 301 298 297 299 297 295 300 300 302 308 299 293 290 289 292 287 289 293 294 297 293 291 291 294 298 305 309 295 296 307 314 313
308 307 307 309 310 308 306 304 307 301 296 300 302 302 299 300 299 294 300 300 302 301 293 294 293 288 290 290 293 292 291 290 290 292 291 287 301 301 296 298 303 307 312 315
307 307 307 308 309 309 306 301 306 303 294 298 305 305 306 304 303 299 301 300 301 302 297 297 297 292 291 291 288 298 290 290 288 291 292 299 302 300 303 304 308 311 310 313
307 306 306 307 308 310 306 303 303 297 294 298 303 302 307 308 305 307 297 304 305 305 306 299 298 293 291 289 289 290 296 296 293 294 299 296 302 302 302 305 310 311 310 311
306 306 306 307 308 310 309 303 303 298 294 292 301 308 306 309 309 307 305 305 309 307 304 298 297 296 295 291 291 291 292 293 291 295 297 297 302 300 300 304 310 309 310 310
305 306 307 307 309 309 309 307 304 302 295 295 298 304 307 308 309 307 307 305 303 302 299 298 296 300 299 294 293 292 291 291 289 289 295 295 295 300 302 304 308 309 309 310
306 307 307 308 308 305 304 299 304 303 301 293 293 305 304 307 308 309 308 306 304 303 301 300 302 300 297 291 289 292 293 296 298 294 299 299 300 301 303 305 307 307 308 310
306 307 308 308 306 305 299 301 302 303 301 294 292 298 304 305 307 309 307 307 305 304 302 300 301 298 298 293 289 293 295 296 298 299 299 298 297 296 301 306 306 306 306 308
307 307 307 306 305 303 300 306 303 304 298 297 290 296 300 306 303 304 311 304 304 304 303 303 300 299 296 289 294 296 296 296 298 297 298 296 297 298 303 305 306 303 302 304
306 305 303 302 300 297 302 303 304 304 298 292 294 294 296 307 303 304 305 308 300 307 301 302 301 300 294 294 294 294 295 294 295 298 297 296 294 294 296 299 303 301 301 303
304 301 300 299 302 305 304 299 294 293 294 294 291 300 296 301 303 301 300 305 303 298 301 302 298 300 298 297 297 297 296 296 298 295 291 292 293 292 293 294 296 299 303 301
301 299 299 305 304 302 298 295 291 292 291 296 297 299 297 304 298 300 305 300 302 294 298 298 298 298 298 299 297 297 297 296 295 294 293 293 293 292 292 292 294 295 297 299
301 302 303 305 299 295 293 293 294 292 292 298 298 299 301 305 306 301 303 297 299 290 303 297 294 299 298 299 298 297 297 296 295 295 293 293 292 293 292 292 292 293 294 295
302 299 296 296 296 287 288 285 290 292 299 301 302 301 305 305 305 302 300 293 294 304 296 295 298 300 298 299 299 298 297 296 294 294 293 293 292 292 291 291 291 291 291 293
293 291 286 290 289 291 293 294 297 301 304 304 304 302 302 304 300 301 293 299 300 292 290 292 300 300 297 300 297 298 295 295 295 294 293 292 291 290 290 290 291 290 288 289
290 292 285 291 296 299 299 300 300 302 304 303 303 302 302 300 296 299 297 292 289 293 294 300 302 302 299 299 298 299 299 299 298 298 297 296 295 292 290 289 289 288 288 288
291 291 290 295 294 295 297 298 298 304 305 305 304 298 295 294 297 293 291 290 289 297 302 303 304 302 301 300 299 299 300 300 300 299 298 297 296 294 293 293 292 289 288 286
290 291 297 296 295 296 298 300 301 306 303 298 299 293 292 300 294 292 297 295 300 303 304 305 305 303 301 300 300 300 300 300 300 299 298 297 296 296 294 291 289 290 289 288

GFSNW_sfc_thetae_174.txt.gz
Theta_e
314 313 311 311 310 307 309 313 305 317 317 305 305 300 302 302 301 303 301 299 298 296 296 295 295 294 295 301 299 293 298 294 289 292 298 299 297 294 293 288 287 290 289 289
313 313 311 310 310 308 307 308 308 317 313 299 300 303 303 304 302 301 300 297 299 299 297 294 295 296 301 301 297 294 298 292 287 290 294 298 295 296 296 295 296 289 286 290
314 313 312 310 309 308 309 308 301 307 309 308 303 301 301 300 305 303 303 300 301 299 297 299 296 297 299 300 298 301 298 293 291 286 290 294 292 293 295 294 289 290 290 292
314 313 312 311 309 308 310 310 304 306 298 302 303 303 301 299 298 303 304 300 299 297 294 297 296 298 299 298 299 299 296 289 292 294 295 295 294 294 294 292 293 290 293 293
314 313 312 311 309 308 313 305 302 304 302 305 303 301 299 297 298 300 300 298 299 299 297 298 296 299 298 295 298 297 296 289 292 290 294 294 292 295 296 294 294 294 295 295
314 313 312 311 310 308 310 312 311 305 301 303 300 300 299 298 300 302 304 303 299 298 300 303 305 307 307 304 299 294 293 290 288 285 291 291 289 293 294 296 297 296 293 297
314 313 312 311 311 309 309 311 309 303 298 300 298 299 300 299 301 300 304 304 301 304 309 309 308 307 306 304 304 303 295 293 288 285 287 282 294 301 301 298 298 298 299 300
314 313 311 311 310 311 309 311 308 303 297 300 298 297 299 300 302 302 303 305 306 310 307 301 298 299 300 301 304 303 303 296 285 284 286 290 294 297 296 295 294 302 299 300
313 314 312 310 310 311 309 311 313 306 298 297 300 298 298 296 299 301 302 308 310 309 303 299 292 290 294 293 296 303 302 302 289 286 282 284 288 296 302 300 291 306 305 302
312 314 314 310 309 310 310 309 316 306 298 301 302 296 297 300 301 298 302 304 303 309 300 295 293 291 297 290 290 292 294 295 291 290 287 289 294 297 303 292 293 303 306 307
311 312 313 310 309 309 309 306 314 307 300 301 303 304 299 299 299 296 302 300 303 301 297 295 293 294 296 294 295 292 292 289 288 288 288 285 297 297 291 295 300 301 306 311
310 311 312 310 308 308 310 304 312 311 301 301 306 305 306 305 303 301 303 302 301 304 298 298 297 294 297 294 288 298 291 293 289 289 289 297 298 298 301 301 299 303 311 316
310 311 311 309 308 308 308 306 309 304 298 298 302 304 311 312 311 313 300 303 310 307 309 301 297 293 299 291 292 294 296 299 294 293 296 295 297 299 300 301 302 311 312 314
310 310 308 308 307 307 308 305 307 303 298 292 301 311 308 312 313 312 312 309 310 309 306 300 297 295 302 295 297 294 295 297 292 293 297 295 299 297 299 301 305 308 311 312
309 308 307 307 308 308 308 308 309 307 299 295 297 304 310 312 312 309 310 310 307 305 301 300 297 301 301 302 299 293 297 293 289 288 294 295 295 298 301 299 304 307 309 310
308 308 307 307 308 308 306 299 309 308 303 295 293 304 304 308 310 309 309 310 309 305 303 300 303 306 301 294 293 299 300 298 297 294 298 299 298 298 299 300 305 306 307 307
308 307 307 307 307 306 300 298 302 307 305 297 293 297 307 310 309 308 307 312 309 306 304 301 302 303 302 296 292 299 299 299 300 301 299 298 297 294 298 301 305 306 306 306
307 307 307 307 307 306 301 307 307 307 301 298 292 295 300 310 304 302 309 309 309 305 304 305 302 304 303 296 300 301 301 299 300 299 299 298 297 297 296 300 302 303 303 303
306 306 306 305 302 298 302 308 307 307 300 293 295 293 294 309 306 306 307 309 302 307 302 302 302 300 298 301 302 300 299 297 297 299 297 296 296 295 294 296 297 301 302 303
305 304 299 295 302 308 307 301 296 295 295 295 291 300 296 302 302 302 302 304 301 298 303 306 301 301 306 304 303 301 299 299 298 295 292 292 292 293 293 293 296 299 302 302
301 297 296 306 306 303 299 294 291 291 288 292 294 297 295 303 297 298 304 299 301 295 300 299 296 299 303 303 301 301 300 298 297 297 295 294 293 292 292 292 294 295 298 299
301 300 305 304 300 297 293 292 295 293 292 300 299 300 302 302 306 300 302 298 299 292 303 297 293 302 304 302 300 299 300 298 296 297 295 294 294 294 293 293 292 293 294 297
303 298 296 295 296 288 288 287 292 293 299 300 302 299 303 304 305 302 300 295 295 303 296 294 300 303 304 302 300 298 299 298 296 295 295 295 293 293 293 292 292 292 292 293
292 291 287 291 290 292 293 292 295 299 302 300 303 302 302 305 301 301 296 299 300 294 291 293 301 303 304 302 300 299 297 297 297 296 296 293 292 291 291 291 291 291 289 290
290 293 287 290 294 296 298 299 298 302 303 300 302 304 303 300 298 299 298 294 291 293 295 302 305 305 304 302 300 299 299 298 298 298 297 297 295 293 291 291 290 290 289 289
291 293 292 295 294 295 297 299 298 303 302 303 303 299 297 296 297 295 293 292 291 297 303 306 306 305 304 303 302 302 301 300 300 300 300 299 298 295 293 293 291 289 288 286
289 292 297 296 296 295 296 299 299 305 302 297 299 293 292 299 295 294 298 296 301 303 305 307 307 306 304 305 304 303 303 302 302 301 299 299 300 299 295 291 291 290 289 288

GFSNW_sfc_thetae_180.txt.gz
Theta_e
312 312 312 313 311 307 303 298 294 308 307 296 293 291 297 300 301 303 302 298 295 293 293 290 290 290 294 302 300 293 297 291 286 288 295 297 293 290 289 281 279 285 283 284
312 312 312 313 311 307 302 295 297 308 305 289 290 296 299 301 299 298 297 297 299 298 292 285 291 292 300 301 298 295 296 290 284 285 290 294 291 293 291 288 283 283 281 284
311 312 313 312 311 309 300 297 294 297 297 296 292 291 294 296 300 299 297 296 297 295 292 292 289 291 297 300 299 303 299 291 286 281 287 291 288 290 292 288 280 284 285 288
311 311 312 312 311 309 302 299 295 296 290 295 295 294 295 293 293 297 297 294 296 293 289 290 288 292 293 298 302 300 296 288 289 290 291 291 290 289 290 288 289 285 288 289
310 310 311 312 310 308 302 296 298 297 295 296 294 295 292 293 295 293 293 291 293 294 291 290 289 291 291 292 297 296 295 287 290 288 291 291 289 290 291 290 290 289 290 290
309 309 310 311 312 308 302 304 304 299 294 294 292 291 294 295 294 296 297 295 292 293 296 299 298 297 297 297 296 294 293 290 287 284 290 290 285 289 290 291 293 293 289 293
308 308 309 310 312 310 306 304 303 297 292 293 295 296 296 295 294 291 295 296 293 298 303 301 299 297 298 299 298 297 290 291 286 283 286 278 291 297 294 292 293 296 295 296
307 307 308 309 311 312 306 306 302 299 292 296 296 297 297 295 295 293 295 298 298 300 297 291 289 290 291 295 298 296 296 292 286 283 283 287 292 290 290 289 289 296 294 296
307 307 308 309 310 312 307 306 307 300 295 293 299 296 295 293 289 292 295 299 299 296 294 290 283 279 286 288 291 295 297 294 285 286 281 273 285 293 298 297 287 295 296 296
308 309 310 311 311 311 307 305 306 301 296 298 299 292 292 295 294 293 292 293 293 296 290 287 282 283 291 284 285 286 287 288 285 285 284 288 293 295 297 287 285 294 296 297
309 310 311 311 312 312 308 304 307 302 298 299 301 301 296 295 294 292 293 291 292 290 288 287 286 282 286 286 288 288 285 282 285 287 284 281 296 293 286 290 294 296 297 299
309 310 310 311 312 312 310 301 304 307 299 298 302 303 303 301 300 296 292 290 290 292 289 291 291 285 284 285 281 292 283 289 288 288 286 295 298 297 297 297 296 297 297 299
308 309 309 310 309 310 308 303 304 303 297 297 297 297 302 304 303 304 291 293 296 297 302 295 291 285 287 282 284 288 291 292 287 288 290 293 295 299 300 299 297 298 300 304
308 308 309 310 309 309 308 302 304 302 298 291 293 302 299 305 304 302 302 299 299 299 300 295 294 288 291 287 289 288 291 290 288 288 291 294 295 298 298 297 298 298 301 304
307 307 309 309 309 308 307 305 305 305 297 292 293 298 301 301 300 300 301 299 297 294 292 290 291 295 291 292 292 285 291 289 288 288 290 293 294 298 298 296 296 298 299 303
306 307 308 308 308 307 303 297 304 306 304 295 289 298 296 300 299 298 298 299 298 296 293 292 296 297 297 290 282 290 293 295 294 291 293 297 298 298 298 295 296 299 302 304
305 306 307 307 307 304 298 296 302 306 304 295 289 286 293 298 298 298 297 299 298 297 295 294 294 294 299 294 287 293 295 295 295 295 295 293 295 293 296 296 297 300 304 304
305 306 306 307 306 305 300 302 305 306 300 297 288 286 289 296 294 293 298 296 301 300 299 299 297 297 298 291 293 293 295 295 295 294 295 294 295 295 294 295 296 296 300 301
304 306 306 304 301 298 299 308 308 305 299 290 291 285 284 298 298 298 301 301 295 299 295 294 296 293 290 293 295 293 293 291 290 293 294 292 292 292 293 293 293 294 297 299
304 302 298 294 299 306 305 300 296 295 296 294 288 291 286 293 291 291 293 297 295 288 294 297 293 289 293 294 293 293 293 293 291 288 290 290 290 291 291 291 293 294 295 298
297 296 294 300 306 301 297 292 290 290 287 291 291 289 288 294 288 287 292 291 292 288 291 292 289 288 292 294 293 293 293 293 294 293 293 293 292 291 291 291 292 292 293 294
297 297 299 300 297 293 289 288 290 288 286 290 288 293 293 294 296 290 292 292 292 288 296 292 286 294 293 294 293 292 293 295 293 293 292 292 291 291 291 291 290 291 292 294
300 295 292 292 291 285 285 282 285 287 294 297 296 293 297 297 300 295 294 290 289 297 291 289 292 293 294 294 293 293 295 294 293 292 293 292 291 291 290 290 290 291 290 291
291 288 283 286 284 287 286 287 288 292 295 294 293 292 293 296 295 295 291 294 295 290 286 289 293 293 294 294 295 293 291 291 290 291 291 291 290 289 289 289 289 289 288 289
288 289 282 285 288 290 291 293 292 294 297 295 293 294 294 291 293 294 294 291 288 291 289 292 294 294 294 294 293 292 292 291 291 291 290 291 291 289 288 289 288 288 288 287
289 288 286 288 287 288 288 291 292 298 296 296 295 292 290 289 292 289 287 288 286 290 294 296 296 295 294 293 294 294 294 293 292 292 292 291 291 289 288 289 288 287 286 285
287 285 289 287 287 286 287 288 291 296 293 288 290 288 288 293 290 289 288 285 291 296 297 298 297 295 294 294 295 296 296 295 294 293 291 290 290 291 289 286 287 288 287 287

GFSNW_sfc_thetae_186.txt.gz
Theta_e
308 308 308 309 309 308 305 295 291 304 304 294 289 288 293 298 299 300 296 294 292 288 289 288 288 288 291 296 297 290 293 291 287 288 294 295 293 290 288 282 281 280 280 281
307 307 307 308 308 308 303 293 293 304 303 288 287 291 294 297 297 296 294 292 294 292 288 283 288 290 296 295 295 293 294 290 284 284 285 293 290 292 291 289 287 282 278 281
308 307 306 307 308 308 299 295 291 295 295 293 289 288 290 292 299 297 296 293 293 289 287 289 286 288 293 295 297 303 299 292 289 284 286 291 288 291 292 287 283 284 283 286
308 308 307 306 307 307 299 294 291 292 287 290 290 289 291 291 291 296 295 291 292 290 284 286 285 288 291 293 297 294 296 289 291 291 292 292 290 290 290 289 289 285 286 287
308 308 306 306 306 307 298 293 292 294 291 291 289 290 288 291 292 293 292 290 294 292 286 287 286 288 287 287 291 296 297 289 291 288 291 290 287 290 290 291 291 291 290 289
307 307 306 306 307 307 299 300 302 298 291 289 289 288 290 292 294 295 297 295 293 290 292 293 294 295 294 292 289 291 293 290 287 282 287 286 277 288 290 291 292 291 287 292
305 305 306 306 307 308 305 303 302 296 288 290 290 292 294 292 293 293 295 295 292 294 298 297 295 292 292 291 291 293 291 290 287 282 283 270 287 295 294 292 293 294 294 294
304 306 308 309 308 308 304 306 302 298 290 291 290 291 292 294 293 291 293 296 298 296 294 286 285 286 287 290 294 291 291 287 285 282 281 284 287 291 291 289 288 292 291 292
304 306 307 309 309 308 306 305 306 300 292 288 294 291 291 288 290 290 293 297 297 294 288 286 282 279 283 284 287 294 291 289 287 283 278 269 279 294 297 294 285 294 294 292
304 305 306 308 309 309 307 305 306 301 293 296 295 291 292 296 294 291 293 295 292 291 286 283 281 282 287 281 283 283 283 283 282 279 279 281 291 294 295 283 285 294 295 293
303 305 306 307 308 309 307 301 306 301 294 295 298 297 294 294 294 290 294 291 288 286 283 285 283 280 283 283 285 284 283 281 281 283 281 276 294 292 287 292 296 296 297 295
303 304 305 306 308 308 308 300 302 306 298 296 300 300 300 299 298 295 294 292 292 293 290 286 289 284 281 282 280 287 284 286 281 285 282 288 293 293 295 296 296 297 297 296
302 303 304 305 307 307 306 302 300 302 295 295 295 294 300 302 302 303 293 296 297 296 297 295 293 287 284 281 281 283 287 290 287 287 290 291 293 294 294 296 298 299 298 297
302 303 303 304 306 307 306 298 300 301 297 288 289 298 295 301 299 300 301 298 298 298 297 294 292 290 292 284 286 284 288 289 287 286 290 291 292 293 295 297 297 297 297 297
301 302 303 303 304 306 303 300 301 303 296 288 290 296 298 298 298 298 299 298 297 295 293 292 290 294 291 291 286 287 289 289 285 286 290 289 289 292 295 293 294 295 295 296
301 301 303 303 303 304 295 293 303 305 303 293 286 292 293 296 297 295 295 296 296 295 293 292 295 297 294 289 281 289 290 291 292 292 290 291 293 293 293 292 294 295 296 297
300 301 302 302 303 300 294 289 300 306 303 293 288 286 291 293 293 293 292 294 295 295 293 292 293 293 296 292 286 290 292 293 293 292 292 290 289 289 291 293 295 296 297 298
299 300 301 302 303 301 296 298 303 303 297 296 287 285 286 292 289 289 294 291 296 295 294 294 291 293 292 288 292 293 294 293 293 291 291 289 289 290 292 294 294 293 294 295
299 300 302 300 298 295 297 306 307 304 298 289 289 286 282 292 289 289 290 295 291 298 292 292 295 294 289 293 294 293 293 291 290 290 289 289 291 291 292 292 292 291 292 293
300 299 294 288 298 304 304 299 296 295 296 293 288 290 286 292 288 288 286 290 291 288 292 298 293 292 297 296 293 292 290 290 290 287 288 288 289 290 290 290 291 291 292 293
292 292 292 295 301 294 293 290 289 290 287 291 290 290 287 295 288 287 290 284 287 286 289 292 290 290 291 292 290 290 290 290 290 292 291 291 290 289 289 290 290 290 291 291
291 292 294 295 292 290 288 285 287 287 284 290 286 290 292 293 295 290 291 286 288 284 295 291 288 292 291 291 290 289 289 290 291 292 291 291 290 290 289 289 289 289 291 291
293 291 289 289 288 282 282 280 284 285 290 291 292 291 294 295 294 291 291 288 286 294 288 288 290 291 292 292 291 289 290 292 291 291 291 291 290 289 289 288 289 289 289 290
288 285 280 284 281 285 286 284 288 292 293 289 289 289 287 289 290 292 286 291 293 288 286 287 289 292 292 292 291 289 288 290 290 290 291 290 289 288 288 288 288 288 287 289
283 283 278 281 284 286 289 291 290 292 291 290 289 288 290 290 289 290 288 288 286 286 284 288 291 293 293 291 290 289 288 288 287 288 290 290 289 288 287 288 288 288 287 287
284 284 282 283 283 281 283 284 286 290 290 289 288 286 287 286 287 285 284 284 282 286 288 291 291 294 293 291 291 291 290 289 288 288 289 290 289 288 288 288 288 287 287 286
283 282 284 282 281 281 282 283 283 286 285 281 285 284 285 290 286 285 286 284 288 289 291 293 295 293 291 291 292 293 292 290 289 288 287 289 290 290 288 286 287 287 287 286